Regional Weather Roundup
Issued by NWS

Home | Current Version | Previous Version | Graphics & Text | Print | Product List | Glossary Off
Versions: 1 2 3 4 5 6 7 8 9 10 11 12 13 14 15 16 17 18 19 20 21 22 23 24 25 26 27 28 29 30 31 32 33 34 35 36 37 38 39 40 41 42 43 44 45 46 47 48 49 50

000
ASUS43 KDMX 021007
RWRIA

WEATHER ROUNDUP FOR IOWA
NATIONAL WEATHER SERVICE DES MOINES IA
400 AM CST MON MAR 02 2015

NOTE: "FAIR" INDICATES FEW OR NO CLOUDS BELOW 12,000 FEET WITH NO
SIGNIFICANT WEATHER AND/OR OBSTRUCTIONS TO VISIBILITY.

* - THESE STATIONS ARE NOT NWS STATIONS...THUS NOT UNDER NWS
QUALITY CONTROL.  THEY ALSO DO NOT REPORT WEATHER SUCH
AS PRECIPITATION OR FOG.

IAZ001>003-012>014-020>022-031>034-043>046-021100-
   NORTHWEST IOWA

CITY           SKY/WX    TMP DP  RH WIND       PRES   REMARKS
CARROLL *      PTCLDY    12   9  85 CALM      30.48S
CHEROKEE *     PTCLDY     5   5 100 CALM      30.48R
DENISON *      CLEAR     10   9  92 CALM      30.47S
LE MARS *      CLEAR      9   7  92 CALM      30.48S
ORANGE CITY *  CLEAR     16  10  79 CALM      30.45R
SHELDON *      CLEAR      5   3  92 CALM      30.44S
SIOUX CITY     PTCLDY    16  11  80 CALM      30.48F
SPENCER        PTCLDY     4   0  83 W3        30.45S
STORM LAKE *   CLEAR     16  12  86 NW5       30.46R WCI   9
$$

IAZ055>058-069>071-079>083-090>094-021100-
   SOUTHWEST IOWA

CITY           SKY/WX    TMP DP  RH WIND       PRES   REMARKS
ATLANTIC *     CLEAR     16  12  86 CALM      30.48F
AUDUBON *      CLEAR      9   5  85 CALM      30.48S
CLARINDA *     CLEAR     21  18  86 N5        30.50F WCI  15
COUNCIL BLFS * CLEAR     25  16  68 E6        30.46R WCI  18
CRESTON *      CLEAR     23  14  68 N7        30.47F WCI  15
HARLAN  *      CLEAR     14  14 100 CALM      30.52R
LAMONI         MOCLDY    23  16  74 NW5       30.49R WCI  17
RED OAK *      MOCLDY    19  18  93 CALM      30.48F
SHENANDOAH *   CLEAR     21  19  93 NE6       30.49F WCI  14
$$

IAZ047>049-059>061-072>074-084-021100-
   CENTRAL IOWA

CITY           SKY/WX    TMP DP  RH WIND       PRES   REMARKS
AMES           PTCLDY    13   9  84 SW9       30.49R WCI   1
ANKENY *       CLEAR     14  10  85 CALM      30.51S
CHARITON *     PTCLDY    19  14  79 NW5       30.49S WCI  13
DES MOINES     MOCLDY    20  12  71 CALM      30.50S
GRINNELL*      MOCLDY    14  10  85 W6        30.49R WCI   5
KNOXVILLE *    PTCLDY    19  12  73 NW6       30.49S WCI  11
MARSHALLTOWN   PTCLDY    10   7  87 W5        30.47S WCI   2
PELLA *        PTCLDY    18  16  93 NW6       30.51S WCI   9
PERRY *          N/A     14  10  85 W7        30.50S WCI   4
$$

IAZ004>006-015-016-023>025-035-036-021100-
   NORTH CENTRAL IOWA

CITY           SKY/WX    TMP DP  RH WIND       PRES   REMARKS
ALGONA *       CLEAR     10   9  92 N6        30.46S WCI   1
CLARION *      CLEAR      7   5  92 CALM      30.46F
ESTHERVILLE    MOCLDY     6   3  87 W6        30.45R WCI  -4
FORT DODGE *   PTCLDY     5   0  78 CALM      30.48R
MASON CITY     MOCLDY     6   3  87 W10       30.46R WCI  -9
FOREST CITY *  CLEAR     10   5  79 NW5       30.44S WCI   2
IOWA FALLS *     N/A      3   0  85 W3        30.46F
$$

IAZ007>011-017>019-026>030-037>042-050>054-066-021100-
   NORTHEAST IOWA

CITY           SKY/WX    TMP DP  RH WIND       PRES   REMARKS
CEDAR RAPIDS   PTCLDY     6   4  91 W8        30.46S WCI  -7
CHARLES CITY * CLEAR      7   5  92 NW7       30.44S WCI  -5
CLINTON *      PTCLDY     5   0  78 NW9       30.48F WCI  -9
DECORAH *      CLEAR     12   9  85 NW5       30.40S WCI   4
DUBUQUE        MOCLDY     7   4  87 VRB3      30.42R
MONTICELLO *   CLEAR     10   7  85 CALM      30.46R
OELWEIN *      CLEAR      7   3  85 W9        30.45R WCI  -7
WATERLOO       MOCLDY     9   8  96 W6        30.46S WCI  -1
$$

IAZ064-065-067-068-078-021100-
   EAST CENTRAL IOWA

CITY           SKY/WX    TMP DP  RH WIND       PRES   REMARKS
DAVENPORT      PTCLDY     7   3  84 W7        30.47S WCI  -5
IOWA CITY      PTCLDY     8   5  87 W6        30.50S WCI  -2
MT. PLEASANT * PTCLDY    18  14  86 W8        30.50R WCI   7
MUSCATINE *    CLEAR     16  10  79 W7        30.51R WCI   6
QUAD CITIES    PTCLDY    13   7  77 W7        30.48S WCI   3
$$

IAZ062-063-075>077-085>089-095>099-021100-
   SOUTHEAST IOWA

CITY           SKY/WX    TMP DP  RH WIND       PRES   REMARKS
BURLINGTON     PTCLDY    19  13  77 NW6       30.48S WCI  11
FAIRFIELD *    MOCLDY    18  10  73 NW8       30.50R WCI   7
FORT MADISON * CLEAR     19  16  86 W7        30.50R WCI  10
KEOKUK *       CLEAR     18  18 100 W5        30.49S WCI  11
OSKALOOSA *      N/A     14  10  85 NW5       30.50S WCI   6
CENTERVILLE *  CLEAR     19  16  86 NW8       30.50S WCI   9
OTTUMWA        PTCLDY    17  12  80 NW8       30.49S WCI   7
WASHINGTON *   CLEAR     14  14 100 W7        30.49S WCI   4
$$

ABBREVIATIONS USED IN REMARKS
   TC - TEMPERATURES IN CELSIUS
  WCI - WIND CHILL INDEX
   HX - HEAT INDEX
  VSB - VISIBILITY
$$



USA.gov is the U.S. government's official web portal to all federal, state and local government web resources and services.